Tracking 27112 objects as of 27-Mar-2023
HD Live streaming from Space Station
objects crossing your sky now

COSMOS 1124 DEB

Track COSMOS 1124 DEB now!


NORAD ID: 12814
Int'l Code: 1979-077E
Perigee: 762.0 km
Apogee: 39,021.1 km
Inclination: 63.5 °
Period: 705.9 minutes
Semi major axis: 26262 km
RCS: 0.3664 m2 (medium)
Launch date: August 28, 1979
Source: Commonwealth of Independent States (former USSR) (CIS)
Launch site: PLESETSK MISSILE AND SPACE COMPLEX (PKMTR)

Note: This is SATELLITE DEBRIS
Your satellite tracking list
Your tracking list is empty




NASA's NSSDC Master Catalog

Two Line Element Set (TLE):
1 12814U 79077E   23085.06837308  .00001462  00000-0  21994-1 0  9998
2 12814  63.4701  57.0542 7283948  44.6119 354.6102  2.03984717 38528
Source of the keplerian elements: AFSPC